RH
19 19 19 20 18 15 10 7 6 6 6 7 6 7 7 7 7 6 6 6 6 5 6 7 7 5 6 7 7 8 8 8 8 8 8 7 7 7 7 8 9 11 12 14 17 17 18 18 17 16 17 17 16 14 21 38 45 45 45 39 34 34 34 35 38 40 40 45 48 41 42 48 46 40 31 24 28 37 39 41 45 44 45 46 46 45 43 40
21 20 19 19 20 20 17 13 9 7 6 6 6 7 6 6 7 6 6 6 6 6 5 6 7 6 5 6 7 7 8 8 8 8 8 8 8 7 7 7 8 9 12 14 15 17 16 16 16 15 16 17 16 15 21 34 42 45 44 38 35 33 34 35 37 40 40 45 48 42 44 52 50 40 33 35 31 30 34 36 40 42 40 42 44 47 46 41
20 21 21 20 20 20 20 19 16 12 8 6 6 6 6 6 6 6 6 6 6 6 5 5 6 7 6 5 6 7 7 7 7 8 8 8 7 7 7 6 7 8 10 12 13 13 13 13 13 13 14 16 18 16 21 34 40 44 43 37 35 33 35 37 37 40 41 45 49 44 44 52 50 32 30 44 37 28 35 30 32 36 33 36 39 46 48 43
20 21 22 22 21 20 19 20 20 19 15 11 8 6 6 6 6 6 6 6 6 6 6 5 5 6 6 5 5 7 7 7 8 7 7 8 7 7 7 6 7 7 8 10 11 11 11 12 12 12 13 15 18 16 19 32 38 43 43 35 34 35 35 37 38 40 42 46 51 46 44 51 45 29 29 42 38 34 39 31 30 33 27 31 33 40 46 44
22 22 22 22 22 22 21 20 20 20 20 18 15 11 9 7 6 6 5 5 5 5 5 5 5 5 6 6 5 6 6 9 10 8 7 7 7 7 7 7 6 6 7 8 10 11 10 12 11 11 13 14 17 16 18 28 36 41 42 36 35 37 36 36 37 37 42 47 49 45 46 52 44 34 31 37 44 43 45 35 30 33 28 29 30 34 42 42
24 24 23 23 23 23 22 21 20 19 20 20 20 18 15 12 10 8 7 6 5 5 5 5 6 5 5 6 6 5 6 11 13 10 9 8 7 7 7 6 6 6 6 7 7 9 10 11 10 11 14 15 16 17 18 25 33 37 38 37 36 39 36 35 35 31 37 44 45 45 49 52 46 42 33 35 46 42 42 36 25 30 30 29 30 32 37 38
24 24 24 24 24 24 24 23 22 21 20 19 20 20 19 17 15 13 11 9 7 6 6 5 5 5 5 5 6 6 5 8 11 10 10 10 8 7 7 6 6 6 6 6 6 8 9 10 11 12 13 14 15 17 18 22 28 30 34 36 35 37 33 32 32 25 30 41 44 45 47 46 49 53 42 39 43 29 26 29 23 28 30 30 31 33 35 34
23 23 23 24 24 24 24 24 24 23 21 20 19 19 19 19 18 17 15 14 12 10 8 7 6 5 5 5 5 5 4 5 7 8 8 10 10 8 7 6 6 6 6 6 5 7 8 10 12 11 12 13 15 16 18 21 23 25 32 34 32 33 30 29 29 22 27 42 44 42 44 47 52 56 51 48 47 32 23 20 21 26 28 31 32 33 35 33
21 21 22 22 23 23 24 24 24 23 23 22 21 19 18 18 19 19 18 17 16 14 12 10 8 6 5 5 5 5 5 5 6 7 7 8 10 10 9 8 6 5 5 5 5 6 6 10 12 11 12 13 14 15 17 20 20 24 30 32 30 29 28 29 28 21 26 39 39 38 44 50 51 52 55 56 51 44 33 22 20 23 24 29 32 33 34 31
21 21 21 21 21 22 22 23 23 23 23 23 23 21 19 18 18 18 18 18 17 16 15 14 12 9 7 5 4 4 6 7 7 8 7 7 8 9 9 9 8 6 5 5 5 5 6 9 10 11 12 12 14 15 17 19 20 24 29 29 28 27 29 31 29 25 30 37 35 40 48 48 47 48 54 57 51 50 45 31 21 20 22 25 29 33 34 33
23 22 21 20 20 20 20 21 22 22 22 22 22 22 21 19 18 18 17 18 17 17 16 16 15 12 10 7 4 5 6 7 7 8 8 7 7 7 8 8 8 7 5 4 4 5 6 7 8 10 10 12 14 15 17 20 20 24 26 28 29 30 32 30 28 26 33 38 36 47 53 47 44 45 52 54 50 52 53 45 30 22 21 22 26 30 32 34
23 23 22 21 20 20 19 19 20 20 20 21 21 21 21 21 20 18 17 17 17 17 17 16 16 15 13 8 5 6 6 6 6 7 8 8 8 6 6 6 8 9 6 4 4 4 5 6 7 8 10 13 15 14 18 19 20 24 26 27 30 32 31 27 28 28 33 38 37 48 54 49 44 44 53 53 48 52 54 55 47 32 22 21 23 25 28 32
21 22 22 22 22 21 20 20 19 19 19 20 20 20 20 20 20 19 18 17 16 17 17 17 16 16 14 10 8 7 5 5 5 5 7 8 8 7 6 5 6 9 8 5 5 5 5 5 5 7 11 14 15 15 18 17 20 27 28 27 29 31 29 28 32 33 37 39 36 43 47 45 45 47 53 49 45 52 54 56 58 47 31 21 20 21 24 26
18 19 21 22 22 22 22 21 21 20 20 20 20 20 20 20 20 19 19 18 17 16 16 17 16 16 13 11 11 8 4 5 5 4 5 7 8 7 6 5 5 8 9 7 5 5 5 5 5 8 11 13 16 17 18 19 22 27 29 27 27 27 28 31 32 33 39 38 35 42 39 33 39 48 48 43 44 50 52 55 58 56 45 28 20 19 21 21
14 15 17 19 20 21 22 22 22 21 21 21 20 20 20 20 19 19 19 18 18 17 17 16 15 15 13 10 12 9 5 4 4 4 5 6 8 8 8 7 6 7 9 7 6 5 5 5 5 8 10 11 16 17 18 22 23 26 29 28 26 24 28 36 31 30 39 36 33 44 41 30 36 45 42 40 43 45 50 55 54 57 54 41 27 20 20 19
13 13 13 15 16 18 19 20 21 21 21 21 21 20 20 20 20 20 19 18 18 17 17 16 15 16 13 12 13 10 7 5 5 5 5 6 7 8 10 9 7 8 9 7 5 5 4 5 5 9 13 12 13 16 17 21 23 27 29 26 24 23 30 39 33 31 41 37 34 44 42 33 38 45 42 41 42 41 48 54 52 54 54 50 39 26 21 19
12 13 12 13 13 14 15 17 18 19 20 20 20 20 20 19 19 19 19 18 17 17 17 16 16 15 13 12 12 10 8 7 6 5 5 6 7 7 9 11 9 9 9 6 5 6 4 5 7 10 14 14 14 15 16 20 22 25 28 26 25 23 26 35 35 36 43 38 37 45 42 36 43 48 40 41 43 40 47 53 51 50 49 51 46 34 25 20
12 12 12 12 12 12 13 13 15 16 17 18 18 19 19 19 19 19 19 19 18 17 15 15 14 14 16 16 13 12 11 9 8 8 7 7 7 7 9 13 15 11 8 6 5 6 6 7 9 10 12 13 15 15 16 19 20 23 27 25 24 24 23 29 35 39 41 37 38 47 46 39 47 52 40 39 43 40 45 51 50 47 42 44 47 40 29 22
12 12 12 12 12 12 12 12 13 13 14 16 16 17 18 18 18 18 18 18 17 16 15 15 13 14 19 18 14 13 13 12 10 9 10 9 8 8 10 16 19 16 11 9 8 7 7 11 12 12 12 12 13 15 16 18 19 22 25 24 23 23 23 25 30 36 38 36 38 44 46 41 44 50 43 37 41 40 42 47 49 47 41 37 41 42 34 25
12 12 12 12 12 12 12 12 12 12 12 14 14 16 16 16 17 17 17 16 16 16 16 16 14 13 15 15 14 13 13 12 11 10 11 11 10 9 10 16 21 21 19 15 12 9 8 13 14 11 11 11 12 15 16 17 19 21 23 23 21 20 21 22 26 35 41 38 37 39 42 41 41 48 50 40 39 42 41 42 44 42 38 31 32 37 34 28
11 12 12 12 12 12 12 12 12 12 11 12 13 14 15 15 16 16 15 14 14 14 14 13 13 11 10 12 13 13 12 10 10 11 12 11 10 12 12 16 24 27 24 19 16 15 13 12 12 10 10 11 11 13 15 17 18 20 22 22 21 20 19 20 26 39 45 39 35 38 40 41 41 47 55 45 36 42 41 40 40 36 34 29 26 28 29 29
9 10 11 12 13 13 12 12 12 11 11 11 12 12 14 14 15 16 14 12 11 12 14 13 12 11 10 12 12 12 11 9 9 9 11 12 12 17 17 17 25 28 24 21 18 17 15 11 10 10 10 10 10 11 13 16 18 19 20 20 21 20 18 24 35 44 47 39 33 37 39 40 42 47 56 47 36 40 42 41 42 39 36 33 27 25 25 27
9 9 9 11 13 14 13 13 12 12 12 11 11 11 12 13 14 15 15 12 8 9 12 13 12 11 10 11 11 12 11 8 9 7 8 12 12 20 25 21 25 28 25 23 19 16 13 10 10 9 9 10 10 11 12 14 16 17 18 19 20 19 19 28 39 44 47 42 35 37 40 41 42 45 53 48 35 37 41 40 42 42 39 36 32 28 26 24
9 9 8 9 11 13 13 13 13 12 12 12 12 11 11 12 13 14 15 13 9 6 9 11 11 11 10 11 11 11 11 8 10 8 6 11 12 19 27 25 25 26 25 24 19 13 11 11 10 10 11 11 11 11 11 12 14 16 17 19 19 19 20 25 33 41 45 44 40 38 40 43 42 41 46 48 40 35 37 39 40 41 40 39 35 29 26 26
11 9 9 8 10 13 14 13 13 13 12 12 12 11 12 12 12 14 13 13 11 6 7 9 9 10 10 12 14 14 14 9 8 10 6 7 13 17 23 25 25 25 25 24 20 14 11 12 12 11 12 11 9 10 10 11 13 15 17 19 19 19 21 23 27 38 41 41 43 41 38 36 36 37 40 46 47 38 32 35 36 38 39 39 35 26 23 24
14 11 10 9 8 11 13 13 12 12 12 12 12 12 12 12 12 14 12 16 17 9 8 11 11 12 13 17 20 18 18 13 8 10 7 7 12 18 22 26 25 24 25 24 21 16 12 13 14 12 12 10 8 9 10 10 12 14 16 18 20 19 22 23 25 34 35 32 38 42 38 33 31 32 34 40 48 43 32 31 33 34 36 38 37 32 26 24
18 15 13 10 9 9 12 14 13 12 13 12 12 12 12 12 13 13 14 19 19 13 14 16 15 17 17 20 23 21 21 18 12 9 7 6 13 20 24 27 26 23 26 26 22 19 16 14 14 12 10 9 9 9 10 10 11 14 15 17 19 20 22 24 27 31 30 28 33 38 38 36 30 28 33 39 46 48 36 27 30 31 31 34 36 36 33 30
22 18 15 13 10 9 11 14 14 13 12 12 13 13 12 13 13 13 18 21 18 16 19 18 17 19 18 18 19 20 20 18 17 15 8 5 15 25 25 24 26 24 25 26 20 18 18 16 14 12 10 9 8 8 10 11 11 13 15 16 17 19 20 22 25 27 27 28 30 33 35 35 32 28 34 42 46 48 37 24 26 29 28 30 32 35 36 35
25 20 18 15 12 10 10 13 15 14 12 12 13 13 13 13 12 15 23 23 15 15 18 17 19 18 16 16 15 16 18 18 21 20 11 6 13 25 25 23 26 26 26 25 19 16 18 18 14 12 10 9 9 9 9 11 11 13 16 16 16 18 19 20 22 24 25 26 27 30 31 32 32 27 31 41 44 42 35 26 23 24 25 27 27 29 33 36
27 22 20 17 14 12 11 13 15 14 13 12 12 13 13 13 15 19 24 22 15 15 17 17 19 18 16 19 18 17 19 20 21 18 13 9 10 17 22 24 25 25 26 26 21 18 18 18 16 13 10 9 10 9 9 11 11 13 16 16 16 16 17 18 19 21 22 23 25 27 29 31 31 24 25 36 36 29 29 30 27 23 21 24 25 26 29 32
29 23 20 19 17 14 12 13 15 14 14 12 11 13 12 14 19 22 23 20 16 17 17 17 20 20 18 20 21 20 20 21 21 19 17 14 14 18 21 24 25 24 25 25 23 20 19 20 17 14 12 10 10 10 11 12 10 12 15 15 16 18 19 20 20 24 25 24 27 25 24 31 31 23 21 27 28 26 26 28 28 25 19 18 20 22 24 28
29 25 21 19 18 15 14 14 14 15 15 12 11 11 13 19 23 23 23 19 14 15 18 20 22 21 19 19 19 19 19 19 21 23 22 18 18 22 22 23 24 23 23 23 23 21 20 20 18 16 14 10 10 11 11 11 9 11 13 14 17 19 22 23 21 25 26 24 26 23 21 27 30 25 22 23 25 27 25 23 23 24 24 19 14 15 21 25
30 26 22 19 18 16 15 14 14 16 16 13 11 10 14 22 23 20 21 18 14 17 19 20 22 21 20 19 19 19 17 18 20 23 25 22 20 21 20 22 23 22 22 22 23 21 20 21 19 17 16 12 10 10 9 10 10 11 12 13 17 19 23 25 22 23 25 22 22 22 21 25 26 25 24 25 25 24 23 23 22 19 21 21 14 14 18 21
31 27 23 20 19 17 16 15 15 16 17 15 10 10 17 22 21 19 19 16 15 19 20 21 23 22 21 20 20 19 16 18 22 22 23 23 22 21 20 21 23 22 21 21 22 20 18 20 19 17 16 14 11 9 7 9 11 11 11 12 16 18 21 23 20 21 22 20 20 23 26 25 23 23 25 26 25 22 20 21 19 14 13 14 13 15 17 17
31 27 24 22 20 19 17 16 16 16 18 15 10 12 18 19 19 20 19 17 16 18 19 20 22 22 22 21 20 20 18 18 22 22 22 23 21 21 20 20 22 24 21 19 20 20 18 17 16 16 16 14 13 10 8 9 11 11 9 11 15 17 18 19 18 17 17 19 20 23 27 25 20 24 28 27 24 21 18 16 15 11 10 11 12 14 16 17
30 27 26 24 22 20 19 17 18 17 18 15 11 13 16 17 18 18 20 19 15 16 18 16 18 20 19 19 19 20 19 18 21 22 21 21 21 21 21 19 21 23 21 19 19 19 17 15 15 16 15 13 14 12 9 9 10 12 10 10 13 15 17 17 17 16 17 19 18 20 26 24 20 24 26 24 23 21 18 17 16 13 11 10 11 13 15 17
30 27 26 26 25 23 20 19 18 18 18 15 13 13 13 14 15 17 25 29 20 16 17 14 15 15 14 15 16 18 19 17 18 21 19 20 20 19 21 22 22 23 22 20 19 19 17 14 14 16 14 13 14 12 10 10 10 12 11 10 12 15 17 16 16 19 21 21 17 17 22 22 20 21 21 20 20 19 19 18 17 17 15 11 10 12 14 15
27 26 25 26 27 26 23 21 19 18 17 13 14 15 13 13 14 14 24 31 24 18 19 16 15 15 14 14 13 15 19 17 16 18 18 20 20 19 21 22 23 24 23 22 20 19 18 15 13 15 14 13 13 11 11 11 11 11 12 11 13 16 18 17 17 20 20 20 18 15 16 20 21 19 18 19 19 18 17 16 16 17 15 11 10 12 13 14
26 26 27 26 27 27 25 23 20 18 17 16 18 20 16 13 14 13 16 21 21 22 21 18 17 18 17 16 14 16 19 16 15 17 18 19 20 21 21 21 23 25 25 24 22 20 20 17 13 14 14 12 12 11 10 11 11 11 11 13 13 13 15 17 18 19 19 19 19 16 14 17 20 18 16 18 19 17 16 16 15 16 15 13 11 11 12 12
29 29 29 27 27 27 25 23 21 18 17 18 22 24 20 16 15 14 13 13 16 19 19 18 18 19 20 18 17 19 20 18 16 17 18 19 20 21 21 21 22 24 25 25 23 22 22 20 17 16 15 13 12 11 9 9 10 10 11 13 13 13 14 14 16 18 18 17 17 17 16 15 17 18 17 17 18 17 16 16 16 15 15 15 13 11 11 11
34 33 32 29 27 27 26 24 21 18 17 20 24 25 23 21 19 17 14 12 12 14 15 17 18 18 20 20 19 20 20 19 19 18 17 17 19 20 21 21 22 22 23 24 23 23 22 22 19 17 16 14 13 12 11 8 8 10 12 12 12 14 15 14 16 17 17 16 15 16 16 15 15 17 18 18 18 17 16 16 16 15 14 16 15 12 11 12
34 34 34 30 26 27 26 24 23 23 23 25 31 32 29 26 22 17 16 15 12 12 14 15 17 18 19 18 18 19 18 18 18 18 17 17 17 18 20 22 22 22 22 22 22 22 22 22 21 19 18 17 15 14 13 10 9 9 10 10 10 11 13 14 17 17 16 16 14 14 16 16 14 16 19 20 18 16 16 15 15 15 15 16 14 11 12 13
33 32 33 31 28 27 24 24 31 37 36 30 28 31 33 30 26 21 19 18 14 13 14 14 16 16 16 17 18 17 17 18 18 17 16 16 16 17 19 21 22 22 22 21 21 22 23 24 24 22 20 19 17 16 15 14 12 9 8 10 9 10 11 12 15 16 16 17 16 15 17 16 15 17 18 19 18 17 16 16 16 15 14 14 12 11 13 14
28 28 28 28 28 26 27 38 49 52 50 44 39 39 38 34 32 32 29 24 19 16 15 16 16 15 15 17 18 17 17 17 17 16 16 15 15 16 16 18 21 23 23 23 22 22 23 25 26 24 22 23 21 18 17 16 15 12 9 9 9 9 10 10 12 14 14 16 16 16 16 16 16 17 16 16 17 16 14 15 15 14 14 14 12 11 12 13
30 30 27 28 29 27 31 49 66 68 62 61 63 61 53 42 37 35 34 32 28 23 19 18 17 16 16 16 15 16 16 16 15 15 15 15 14 14 14 17 20 21 24 28 29 27 24 23 25 23 22 24 24 20 19 18 17 16 13 10 9 9 9 11 11 12 14 16 17 17 17 16 15 16 16 14 14 15 14 14 15 14 13 13 12 11 11 12
35 29 27 39 47 43 40 47 64 76 73 69 73 70 59 51 46 41 38 36 33 31 29 26 22 19 18 18 17 17 17 16 16 16 17 17 15 15 15 15 19 22 26 31 34 35 31 27 26 25 22 20 20 20 20 19 18 17 15 13 11 9 9 9 10 11 13 16 17 17 17 16 15 16 17 16 15 15 15 14 14 14 12 11 12 11 11 11
46 40 47 62 58 51 58 62 65 76 77 75 78 72 62 59 56 52 48 41 35 33 31 30 28 26 23 21 19 18 18 18 17 17 18 18 17 19 20 18 19 22 27 32 38 43 41 35 31 30 25 21 20 20 20 19 19 18 16 14 12 12 11 9 9 11 12 13 15 16 16 17 17 15 15 16 16 16 16 14 14 14 13 11 11 11 11 11
60 54 61 69 55 48 65 76 75 81 83 83 84 78 69 64 58 54 55 50 41 36 33 30 28 27 28 28 27 25 23 21 20 19 19 18 18 21 22 21 20 20 24 30 38 47 49 42 35 32 29 25 22 20 19 19 19 18 17 16 14 14 13 12 11 11 10 11 14 15 17 19 19 16 15 16 17 16 16 15 13 13 14 13 11 11 11 11
75 68 61 56 45 37 43 50 54 58 61 67 74 77 75 69 60 57 61 62 57 49 43 37 31 28 27 27 30 32 31 29 26 24 22 20 19 20 20 21 22 23 24 27 36 48 52 44 37 32 29 27 25 22 20 18 18 18 17 17 16 15 14 14 13 12 11 12 13 14 17 19 19 17 15 14 15 15 15 15 15 14 13 11 11 11 10 10
90 88 75 56 41 33 30 29 29 28 27 31 42 57 66 67 69 72 74 77 72 61 51 42 40 43 38 31 36 41 42 42 39 36 36 31 24 22 19 18 21 22 22 28 40 48 46 42 39 35 30 27 25 23 22 20 17 17 17 17 16 15 14 13 12 13 13 13 13 14 15 18 19 18 16 14 14 14 14 15 16 14 12 11 11 11 10 10
93 85 73 58 47 42 37 31 28 29 29 25 31 48 62 69 76 76 71 70 67 63 62 58 57 61 56 49 53 55 55 57 53 49 51 46 34 30 29 27 27 25 24 33 45 47 43 42 43 39 32 29 25 23 22 21 18 17 18 18 17 16 15 14 13 13 13 12 14 14 14 17 17 15 16 16 14 15 16 15 15 13 9 9 11 11 10 10
98 90 79 68 60 52 46 38 32 32 39 49 57 58 54 53 53 50 51 59 67 73 77 75 71 67 61 61 66 67 66 66 58 48 47 44 35 32 35 36 35 33 34 40 46 47 46 46 45 42 35 29 25 23 21 21 21 19 18 18 18 17 16 16 14 13 13 12 13 13 14 16 14 14 18 17 13 15 16 12 11 12 10 8 10 11 10 10
Wind_Speed
10 9 9 9 9 10 10 11 12 13 13 14 14 15 14 14 14 14 14 13 13 13 13 13 13 13 14 16 17 19 21 22 23 23 23 23 24 25 25 27 29 28 27 25 24 22 20 18 16 14 12 11 9 9 10 9 8 6 4 5 2 0 1 2 2 1 3 4 4 3 4 4 4 3 5 8 9 9 8 7 9 11 11 11 12 13 14 15
11 10 10 9 9 9 10 10 11 11 12 13 13 14 14 14 14 14 14 14 14 13 13 13 13 13 13 14 16 18 19 21 22 22 22 23 22 22 22 25 27 28 28 27 24 23 21 19 18 16 14 12 11 10 10 10 10 8 6 5 3 0 1 1 2 1 2 4 3 2 3 4 4 3 4 7 8 9 9 10 12 12 12 11 12 14 15 14
12 12 11 10 10 10 10 10 10 11 11 12 12 13 13 13 13 14 14 15 14 14 13 13 12 13 13 13 15 16 18 19 19 21 22 22 21 20 21 22 24 27 28 27 25 23 23 21 19 16 15 13 12 12 9 10 11 9 8 7 3 1 1 1 1 1 2 4 2 2 3 4 5 5 7 8 8 8 8 9 11 13 13 12 14 15 15 15
13 13 12 12 11 11 10 10 10 10 10 11 11 12 13 13 13 13 14 15 15 14 14 13 12 12 12 12 13 15 16 14 17 21 20 21 21 20 20 20 22 25 27 27 26 25 24 23 21 18 17 15 14 13 11 12 11 9 10 8 3 2 2 3 2 3 4 5 4 1 2 5 6 7 8 9 8 7 8 6 5 9 11 12 13 14 15 15
13 13 13 13 13 12 11 11 10 10 10 10 10 11 12 12 13 13 13 14 15 14 14 14 13 12 12 12 11 13 12 8 13 19 18 20 21 21 22 21 22 24 25 27 27 27 25 24 23 21 21 18 15 15 13 13 12 10 11 9 6 4 3 4 4 4 5 6 5 3 1 5 6 9 9 9 8 6 8 6 5 8 10 11 12 14 15 14
14 14 14 14 13 13 13 12 12 11 10 10 10 10 11 11 11 12 12 13 14 14 14 14 13 13 12 12 11 11 12 8 8 14 16 19 21 21 23 23 24 24 25 26 27 28 27 26 25 24 23 20 17 16 13 13 15 14 12 11 10 8 5 5 5 5 5 5 3 2 4 5 6 8 9 11 9 7 9 8 7 11 12 11 11 13 14 14
14 14 14 14 14 14 14 14 13 12 12 11 11 11 10 10 10 11 11 12 12 13 13 13 14 14 12 12 11 11 15 12 9 14 15 16 20 21 23 23 25 25 26 26 28 29 29 28 27 25 23 21 18 17 13 13 17 16 12 11 11 10 9 7 7 7 4 4 4 3 4 4 5 6 6 9 9 7 9 9 10 13 13 13 12 12 13 14
15 15 14 14 14 14 14 14 14 14 13 13 12 11 11 11 10 10 11 11 11 11 12 12 13 14 13 13 12 11 13 11 12 18 17 15 18 20 22 23 25 26 26 27 28 29 29 30 28 26 24 21 18 17 15 14 16 18 16 12 12 13 11 9 10 10 4 6 7 6 4 3 6 6 5 7 9 7 7 9 10 11 13 14 14 13 13 15
16 16 15 15 14 14 15 15 15 15 15 14 13 13 12 11 11 11 11 11 10 10 11 11 12 14 13 13 13 11 10 11 15 18 18 17 18 19 21 23 25 27 27 27 28 29 30 31 30 26 23 20 18 17 16 16 14 16 17 15 14 13 12 12 12 11 6 8 9 8 7 7 8 7 6 7 8 7 8 8 8 10 11 14 15 14 15 16
17 17 16 16 15 15 15 15 15 15 15 15 15 14 13 12 12 12 12 11 10 9 9 10 11 13 13 12 13 11 7 10 16 17 18 19 19 20 21 22 24 26 28 28 29 30 31 32 28 26 24 20 19 18 17 16 14 13 14 16 17 15 14 15 13 11 9 10 8 8 10 11 9 7 8 9 8 7 8 8 8 9 10 12 15 15 16 16
19 18 18 17 17 16 16 16 16 16 16 16 16 15 14 13 13 13 13 13 12 10 9 10 11 12 13 13 12 12 10 11 16 16 17 19 21 22 21 22 24 25 27 29 30 30 31 30 27 27 27 22 20 20 18 18 16 15 15 15 18 18 17 17 15 11 11 12 10 10 12 13 13 10 9 11 9 8 9 9 8 9 10 11 13 15 16 17
20 19 19 18 18 17 17 17 16 17 17 17 17 16 15 14 14 14 14 13 13 12 11 11 11 11 13 13 9 11 13 13 16 17 17 19 21 22 22 21 23 24 26 28 29 30 30 31 32 30 25 21 19 17 18 20 18 17 17 13 14 16 16 16 14 12 11 12 12 12 13 15 17 13 11 12 10 10 10 10 9 9 11 11 12 14 15 16
20 20 20 20 20 19 19 18 17 17 18 18 18 17 16 15 15 15 15 14 14 13 13 13 13 13 14 12 8 10 14 13 15 18 18 19 19 20 21 21 23 23 25 27 28 30 32 33 33 29 24 20 17 17 18 20 19 16 16 13 11 12 13 14 14 13 12 13 14 12 11 12 15 15 14 13 12 12 13 11 11 10 11 12 12 13 14 15
20 20 21 21 21 21 21 20 19 19 19 19 18 18 17 16 16 16 16 15 15 14 14 14 14 14 15 11 9 13 14 13 14 17 18 18 18 19 20 20 22 23 24 26 29 31 33 33 32 29 30 24 17 20 19 16 19 16 13 15 14 12 11 14 16 16 14 15 15 13 11 7 8 14 16 13 13 15 14 12 12 12 12 13 13 13 14 14
21 21 21 21 22 22 22 22 21 20 20 20 19 19 19 18 17 17 17 17 16 16 16 15 14 16 17 12 11 13 12 13 14 15 18 18 18 19 19 19 21 22 23 26 29 31 32 32 33 30 30 28 20 20 19 15 18 17 15 17 16 13 10 13 17 17 16 16 15 15 14 7 6 12 13 11 14 16 15 14 13 12 13 14 15 15 15 15
21 21 21 22 22 23 23 23 23 22 22 21 20 20 20 19 19 18 18 18 18 17 17 17 15 16 17 13 11 11 10 12 13 15 16 17 18 19 19 19 19 21 22 25 27 29 32 32 32 28 23 26 25 20 18 17 18 19 20 18 16 16 12 12 18 18 17 18 18 18 15 7 7 12 11 10 14 14 16 17 15 14 14 15 16 16 18 18
21 21 22 22 23 23 23 23 24 23 23 23 21 21 21 21 20 20 19 19 19 19 19 18 17 17 17 15 11 10 10 10 12 15 16 16 18 18 19 18 18 19 20 23 24 27 31 31 32 30 25 24 24 22 22 22 21 21 22 20 16 17 15 13 16 19 20 20 20 20 17 10 8 12 11 11 14 15 17 18 17 16 15 16 17 18 19 20
21 21 21 22 23 24 24 23 24 24 23 23 22 21 22 21 21 21 21 21 21 20 20 19 18 15 11 9 7 8 10 10 12 15 16 16 16 17 18 18 17 18 19 21 23 26 29 30 31 30 28 26 26 27 28 25 23 21 21 21 17 16 16 15 15 19 23 22 20 20 21 16 11 12 13 11 12 15 18 18 18 17 17 18 19 20 20 21
21 21 21 21 22 24 24 24 24 24 23 23 23 21 21 22 22 22 22 21 21 20 19 19 19 14 9 10 10 10 13 13 13 16 16 16 17 17 18 18 18 17 17 18 21 26 28 27 29 30 29 30 30 31 30 24 21 20 20 20 19 16 17 17 16 18 22 22 20 21 22 20 16 15 17 14 11 14 17 18 18 18 18 19 21 22 22 21
21 21 21 20 21 23 23 23 24 24 23 22 22 21 21 22 21 22 23 21 21 21 20 22 22 19 17 18 17 15 17 17 16 17 18 18 18 18 18 20 19 17 17 17 18 24 27 26 29 32 30 30 31 30 28 24 20 19 20 20 20 18 17 18 17 17 21 21 20 21 21 19 18 16 19 19 15 14 16 17 18 18 18 19 21 23 24 22
22 21 21 20 21 22 23 23 24 24 23 22 21 20 21 21 20 22 24 21 20 22 22 22 24 22 18 18 17 17 19 20 20 20 21 21 19 19 21 22 21 19 19 18 16 20 26 28 29 31 28 25 27 28 28 25 21 19 21 21 21 20 18 17 17 18 21 20 18 20 20 20 18 17 19 23 21 18 17 15 16 15 15 17 19 22 24 23
22 22 21 20 20 22 23 22 23 24 23 22 21 20 20 20 20 22 25 23 19 20 22 22 22 20 16 17 19 20 22 21 21 23 23 23 22 21 22 24 23 21 20 19 17 19 25 29 27 26 26 24 24 27 28 27 23 21 21 21 21 21 18 13 15 18 20 20 17 16 20 21 19 19 21 25 24 22 20 18 16 15 15 15 15 17 21 24
23 22 22 21 19 21 22 22 23 22 22 22 21 20 20 20 21 21 24 24 19 17 18 19 21 18 17 19 20 20 21 20 20 24 24 24 25 22 21 24 24 21 21 24 23 21 24 27 25 23 24 25 24 26 28 27 26 25 24 23 22 22 18 14 16 18 19 21 17 15 18 20 19 20 23 27 27 24 24 23 21 20 18 14 12 14 17 22
23 23 22 21 19 20 22 22 22 22 21 21 20 20 20 20 21 21 22 24 22 16 13 16 19 19 19 21 21 19 19 19 20 23 24 25 26 25 23 24 25 23 23 25 25 24 21 20 22 23 24 26 25 24 26 27 27 27 27 26 23 21 20 19 18 16 17 19 19 16 16 19 21 22 24 26 27 27 27 26 25 25 22 16 14 15 17 21
24 23 22 21 19 19 21 22 22 22 20 19 19 19 18 19 19 20 20 21 22 18 12 15 18 19 19 18 16 14 14 17 18 22 25 26 26 26 25 23 24 25 24 23 24 26 23 18 20 23 24 26 26 25 28 28 27 28 28 28 25 21 20 20 18 16 16 18 20 19 15 17 21 23 24 24 24 27 26 26 27 26 25 21 18 19 19 20
24 24 23 22 20 19 20 21 22 22 20 19 18 17 17 17 16 17 17 15 17 19 16 15 15 16 16 14 13 10 10 13 17 23 24 24 26 25 23 23 25 24 22 22 22 24 23 21 21 21 22 26 27 26 28 28 27 28 28 28 26 22 19 19 20 20 20 18 17 18 16 16 18 19 22 22 23 26 25 23 26 26 26 25 23 21 19 19
24 25 24 22 21 20 18 20 21 20 20 18 17 16 15 15 14 14 13 9 11 15 15 12 13 15 14 13 12 8 7 9 13 20 24 24 25 25 22 23 25 23 20 21 21 23 24 22 21 22 22 25 29 28 27 28 30 27 24 25 27 24 20 19 21 23 22 18 16 18 18 18 20 19 16 17 21 23 24 23 23 25 25 25 26 25 22 20
24 26 25 22 22 21 19 19 20 19 19 18 16 15 14 13 12 9 6 5 6 7 9 12 14 15 14 13 12 10 9 9 7 12 22 25 23 25 26 24 23 22 22 24 22 19 23 26 25 25 25 25 29 29 25 26 30 26 19 20 25 25 21 20 22 23 23 20 18 21 21 17 20 21 16 16 20 22 26 25 22 23 23 22 24 25 25 23
24 26 26 23 23 23 21 20 20 18 19 18 15 14 14 12 10 6 4 5 7 7 8 11 14 14 14 12 11 12 12 10 9 10 19 27 27 26 27 24 21 22 24 27 24 16 17 25 26 26 28 27 26 26 24 25 29 23 15 16 21 22 21 21 21 22 23 23 21 22 23 17 17 21 20 19 22 24 26 24 21 21 20 21 21 22 24 26
24 26 27 24 23 23 22 21 21 19 18 17 15 13 14 12 9 8 8 8 7 9 12 13 13 13 12 9 8 11 12 11 14 14 17 26 30 29 27 24 21 21 22 25 26 20 14 17 23 25 27 27 23 22 23 25 26 21 14 15 17 18 20 19 20 21 20 20 21 23 24 19 15 20 21 21 24 23 20 20 19 19 18 19 20 20 21 24
24 26 27 26 24 23 23 22 22 20 18 17 15 14 14 13 13 11 9 10 10 10 13 14 15 13 10 8 8 10 10 10 13 16 17 23 29 29 27 25 23 22 22 23 26 25 18 16 20 23 25 26 23 22 22 23 25 22 17 18 18 16 17 17 18 19 15 13 21 24 24 21 18 20 19 19 23 21 17 17 18 18 17 17 18 19 20 21
24 25 26 27 25 23 23 24 21 19 18 17 15 15 15 13 17 18 13 9 9 10 12 14 17 15 11 13 13 9 8 9 12 16 19 23 27 31 30 27 26 24 24 24 23 25 26 23 20 19 22 27 26 23 23 24 26 26 22 23 21 15 13 13 14 15 13 15 21 24 23 23 23 25 21 17 19 20 16 16 16 16 19 21 18 16 17 19
25 25 25 27 27 23 24 25 22 19 19 18 16 17 17 15 17 22 21 14 6 6 12 15 17 17 15 15 13 10 9 9 12 16 19 22 25 29 31 28 28 26 22 21 21 22 23 24 24 21 21 28 31 28 26 25 27 30 28 27 24 15 10 11 11 11 13 18 23 22 20 21 23 24 23 22 23 22 19 19 19 17 19 21 18 13 14 16
26 26 26 27 27 25 25 25 24 22 19 19 19 19 21 21 19 18 22 23 14 7 9 12 13 15 18 17 13 12 11 8 11 16 18 22 24 26 29 29 29 27 21 19 21 22 19 19 27 30 24 25 31 32 28 24 26 31 32 29 28 24 16 11 11 11 12 16 22 22 18 19 21 18 19 23 24 23 20 18 18 17 16 17 15 13 14 13
25 26 27 27 27 26 25 26 25 23 21 21 22 23 27 28 21 17 20 23 20 14 11 11 11 12 15 17 16 15 13 9 10 15 18 22 24 25 27 29 30 29 25 21 19 21 21 18 22 30 28 24 28 31 28 23 24 29 32 31 32 31 25 17 16 20 19 15 18 21 19 20 22 18 18 21 21 21 20 19 18 17 15 15 15 16 16 14
26 26 27 27 28 26 25 26 26 24 24 22 24 30 35 30 21 16 16 17 20 18 15 16 17 16 17 18 17 17 16 13 10 14 19 22 24 24 25 27 29 31 29 23 17 17 20 17 15 23 29 27 26 28 30 28 23 23 31 36 33 29 28 25 20 21 20 15 16 20 18 21 24 22 24 26 26 25 23 21 19 17 17 16 16 18 19 18
26 25 26 27 28 26 26 26 26 26 25 25 30 36 35 30 25 19 13 13 18 18 16 19 20 20 20 19 19 19 19 17 14 15 17 20 22 24 24 24 27 31 30 24 18 16 16 15 15 20 26 28 26 25 29 32 26 22 28 34 29 23 26 28 20 15 15 12 15 22 21 20 23 22 23 26 27 28 25 22 20 20 21 19 17 20 23 22
28 25 25 26 26 26 25 26 26 27 25 28 37 39 33 28 27 25 19 16 16 16 17 19 19 18 20 20 19 19 19 18 17 17 17 17 17 20 24 24 24 28 30 26 20 16 15 16 16 21 24 25 27 26 27 32 33 28 24 26 28 24 22 25 20 13 13 10 11 21 24 21 24 24 19 18 20 21 22 20 17 16 18 18 16 21 24 23
28 26 25 24 24 24 23 24 26 26 27 32 37 37 34 32 29 28 26 22 19 18 20 21 19 18 19 19 17 17 19 19 18 17 17 16 14 14 20 23 22 24 28 29 24 17 15 16 15 18 22 23 27 31 31 31 34 33 25 22 29 30 25 27 24 18 15 11 10 18 21 20 25 27 23 19 16 15 15 16 16 14 16 18 17 20 24 25
29 26 25 25 23 22 23 23 25 27 31 37 37 32 30 29 29 30 32 30 26 23 23 22 21 20 20 19 17 16 17 18 17 16 16 15 13 11 14 21 22 23 25 28 27 21 17 18 16 14 19 22 26 32 34 33 32 33 31 27 27 27 26 26 28 29 25 16 11 12 15 20 23 24 26 25 20 17 16 16 18 18 17 19 19 19 23 26
28 25 25 26 23 22 22 23 26 29 32 36 35 31 27 25 25 27 29 32 31 28 26 24 22 22 21 20 20 18 17 17 17 17 16 15 15 11 12 19 21 21 25 27 28 25 19 20 19 15 18 23 26 27 30 32 31 31 33 33 30 26 25 22 19 27 31 26 21 15 13 20 22 20 26 30 27 24 22 19 21 22 20 21 23 21 21 25
28 25 24 25 24 21 22 24 26 27 30 32 31 28 26 28 30 28 26 26 28 29 29 28 26 24 23 22 21 20 19 19 20 20 17 16 17 13 10 14 18 18 23 27 27 25 20 18 20 20 18 20 22 22 24 28 31 31 30 33 34 30 30 26 18 22 30 30 31 27 19 21 23 18 20 25 26 27 25 21 21 22 20 21 24 22 18 20
29 27 24 25 25 22 21 23 22 23 27 30 29 27 26 28 31 30 27 25 25 26 27 29 29 28 26 24 22 22 21 21 21 22 19 16 17 17 12 11 14 15 18 22 23 25 23 18 19 22 20 19 20 21 22 23 27 31 31 31 35 35 36 34 26 25 28 28 30 26 19 21 23 19 17 17 19 25 26 24 22 21 20 21 22 21 18 18
28 28 24 23 24 22 21 20 17 19 23 23 24 25 26 28 27 26 24 23 23 24 25 26 27 28 28 25 24 23 22 21 21 21 21 19 18 21 20 15 14 14 14 16 18 22 25 22 20 20 15 15 18 18 20 24 26 30 32 31 34 36 36 36 32 30 30 30 32 25 18 22 24 23 25 22 18 23 25 25 25 23 23 24 23 21 20 20
25 25 22 19 19 20 20 18 15 16 17 17 19 21 22 25 27 27 25 24 22 21 22 23 23 24 25 25 25 26 24 23 21 18 19 20 20 21 23 21 19 16 14 15 16 18 21 23 24 22 16 13 15 17 21 26 27 29 30 31 33 35 36 35 34 33 29 27 31 30 24 26 27 26 29 26 20 20 21 21 22 23 24 25 25 25 23 22
23 22 19 15 15 17 18 17 16 16 15 15 17 16 17 20 21 23 25 26 25 23 21 20 19 20 23 24 25 25 25 26 23 19 16 16 17 19 22 25 23 19 18 20 19 16 16 19 24 28 26 22 21 21 21 23 25 28 30 31 31 32 36 37 34 35 32 26 30 34 28 26 27 25 25 25 24 24 23 22 23 25 27 27 26 26 26 26
20 19 16 15 15 14 13 13 14 15 15 15 15 13 13 14 14 16 20 23 24 24 23 22 20 21 22 23 25 24 24 24 25 24 20 17 15 15 19 24 25 23 23 22 18 15 16 18 22 27 31 30 27 24 22 22 24 26 28 30 31 29 31 36 37 37 34 27 27 30 29 29 31 28 24 23 25 26 26 26 26 26 27 27 25 24 24 27
17 17 16 17 17 14 13 14 15 16 16 15 15 15 14 14 14 13 14 17 20 21 23 24 24 25 23 22 23 23 23 23 25 25 23 21 18 16 16 19 22 25 24 19 15 15 18 20 21 24 28 31 31 29 27 25 25 26 27 29 31 31 31 33 36 37 36 33 29 27 27 31 34 34 33 28 24 24 24 26 28 28 29 32 31 27 24 27
17 17 17 20 22 20 19 18 19 20 19 17 17 17 16 16 16 13 12 13 16 18 21 22 22 24 27 25 23 23 23 22 23 24 24 22 21 21 20 18 19 22 23 19 16 17 20 21 21 22 26 29 31 32 31 31 29 29 30 30 31 33 35 36 35 35 36 37 36 30 29 31 32 34 39 39 33 29 27 26 28 29 29 32 35 32 27 26
16 16 17 20 23 22 20 20 20 20 19 19 19 17 15 15 15 15 14 13 13 14 17 19 18 18 23 26 26 24 22 20 19 17 18 20 21 22 22 20 19 21 23 20 17 18 21 20 16 17 22 25 28 31 31 32 32 32 32 32 32 33 34 36 38 37 36 37 37 35 35 35 32 30 33 37 38 36 35 33 33 34 34 33 34 33 29 26
19 19 19 21 23 21 19 19 19 19 18 17 16 15 14 13 14 18 20 18 16 13 12 14 16 16 20 23 24 22 19 21 23 19 17 19 21 20 19 18 17 18 21 20 17 17 19 18 13 13 18 21 23 27 30 31 31 32 32 32 32 33 33 34 35 36 38 38 35 36 38 38 34 31 32 34 36 37 37 37 37 38 39 39 37 34 30 26
20 19 18 20 21 21 19 18 18 19 18 14 13 15 16 16 18 21 21 19 17 15 13 15 18 20 20 19 19 21 22 26 30 28 23 23 24 23 22 21 19 18 20 20 18 15 15 15 12 12 16 19 19 20 24 26 26 27 32 33 33 34 34 33 34 35 36 38 37 37 38 35 31 30 32 34 36 39 40 40 38 36 37 40 41 37 31 26
Wind_Direction
297 299 303 309 311 309 304 297 290 287 284 283 283 285 287 290 295 299 302 305 308 307 307 306 298 281 264 257 253 248 246 247 248 249 248 245 243 241 240 238 237 239 241 240 240 242 246 250 254 258 262 268 274 269 253 239 231 230 239 250 258 27 92 97 116 109 83 143 151 67 88 100 74 114 145 140 144 150 158 168 165 165 165 176 188 190 191 181
297 297 297 301 305 310 311 308 302 295 290 287 286 286 287 289 292 296 301 304 307 308 308 308 307 294 275 262 255 250 247 245 246 248 248 247 244 240 238 238 234 234 236 237 237 238 242 245 249 252 255 261 265 262 254 242 230 223 234 249 264 341 92 96 138 134 114 155 165 57 92 118 104 113 140 146 156 154 157 170 172 174 173 178 186 188 195 187
297 296 295 296 298 301 306 311 311 306 301 295 291 289 289 290 291 294 297 301 304 307 308 307 308 302 290 271 259 255 248 246 248 247 247 246 244 239 235 235 232 231 231 233 234 234 237 239 241 243 246 250 254 255 248 239 233 226 233 241 247 237 237 260 216 200 165 169 188 47 89 136 132 118 132 149 161 156 165 179 179 180 176 180 186 186 193 189
295 295 295 294 295 296 298 302 306 309 308 304 299 294 293 292 292 293 294 297 301 304 306 307 306 306 301 284 268 259 252 252 253 247 246 246 242 236 231 229 229 228 228 228 229 230 232 235 235 235 237 238 243 251 242 235 233 224 230 230 231 249 260 267 254 229 198 180 196 228 96 141 136 118 130 148 156 157 168 179 181 184 179 181 183 180 187 190
292 293 293 293 294 294 294 295 297 301 304 306 305 301 300 298 295 294 294 295 298 300 303 305 306 305 304 296 278 263 257 260 257 248 243 242 239 234 231 226 224 224 224 224 225 227 229 232 232 231 235 234 235 244 240 233 227 224 233 231 239 255 262 265 253 244 218 190 207 254 164 155 139 125 129 133 142 165 174 174 176 177 175 178 179 175 180 184
288 290 291 292 293 293 293 293 294 294 296 298 300 302 304 304 304 301 299 297 296 299 301 302 304 303 303 300 288 268 251 229 247 250 236 235 235 232 231 227 224 222 221 221 221 223 225 228 230 230 235 236 235 239 236 231 228 230 238 237 240 244 251 262 253 260 242 207 224 261 193 175 143 134 133 130 143 172 173 167 164 167 166 170 175 173 173 175
286 287 288 289 291 292 292 292 292 292 292 292 293 296 299 303 307 308 307 305 302 301 300 300 301 301 301 299 293 277 252 223 235 250 230 227 231 230 229 226 224 223 220 219 218 219 221 225 228 229 234 236 235 237 231 228 235 234 234 237 238 236 247 256 258 284 279 209 208 212 209 196 153 151 145 140 155 161 158 159 158 164 163 164 169 169 170 169
284 285 285 286 287 289 290 290 291 291 291 290 290 291 293 297 300 305 307 308 311 308 305 302 299 299 299 297 293 286 265 233 235 245 232 224 227 227 228 226 224 223 221 219 217 217 219 223 226 227 229 231 233 235 230 228 241 239 230 233 240 240 249 254 264 288 270 198 209 217 228 205 172 178 170 156 163 153 148 157 157 163 162 160 163 166 169 170
282 283 283 284 285 286 287 288 288 289 290 289 289 289 290 293 295 299 299 303 310 312 311 307 302 298 295 297 292 290 281 245 235 239 234 228 226 225 227 226 224 223 221 219 217 216 217 219 223 224 225 229 231 231 230 231 242 244 232 231 241 244 251 255 268 282 245 202 222 231 229 214 199 193 186 187 184 166 157 160 158 160 162 160 164 169 171 173
281 281 281 282 282 282 284 285 286 287 288 288 288 289 288 290 292 293 294 297 301 306 310 309 307 301 296 296 287 284 284 248 235 232 230 229 228 226 226 227 225 223 221 219 217 215 215 217 219 222 222 223 227 228 227 230 237 241 231 230 239 243 249 257 266 267 228 209 226 223 220 223 222 206 193 209 212 190 170 165 164 161 165 166 165 171 174 178
279 280 280 280 280 280 280 281 283 284 285 287 287 288 288 289 289 289 291 293 296 299 300 302 304 304 300 294 285 280 272 249 238 232 228 227 228 227 225 227 228 224 221 219 217 214 214 215 214 216 220 220 225 230 227 229 233 234 232 236 244 245 249 259 262 247 214 213 218 203 215 232 236 218 201 223 227 209 190 172 173 169 172 178 172 174 177 181
277 277 278 278 278 278 277 277 279 280 282 283 285 287 287 288 287 286 288 289 292 293 294 295 295 300 298 294 295 282 268 253 242 237 231 226 226 227 226 227 229 225 221 218 216 214 212 212 212 211 216 220 222 226 228 230 232 235 234 236 249 248 249 257 250 230 210 214 213 202 216 236 243 229 205 223 228 214 205 183 182 183 181 187 185 182 181 183
275 276 276 276 277 276 275 275 275 276 278 279 282 284 285 286 285 285 286 286 288 289 289 290 290 293 291 297 305 272 260 254 243 237 234 231 227 227 227 226 227 225 222 218 215 213 212 212 212 208 211 216 216 218 224 230 231 232 233 231 243 243 244 248 226 205 203 215 220 213 214 226 238 233 216 222 224 214 212 198 190 192 192 196 198 195 190 187
277 276 275 275 275 274 274 273 273 273 273 275 278 280 282 283 282 283 284 284 285 284 285 286 288 289 285 296 300 270 257 253 246 238 236 236 232 229 228 225 226 226 222 218 214 212 212 211 209 206 208 208 212 221 221 228 229 224 227 226 231 234 231 234 218 196 197 214 223 220 217 214 215 222 220 220 221 217 214 209 203 200 202 204 206 206 202 197
280 278 276 275 274 273 273 272 272 271 271 272 274 276 278 279 280 280 282 283 282 281 281 281 285 289 287 290 287 274 260 248 244 240 237 235 234 232 229 225 224 225 222 217 214 211 210 209 207 206 209 208 208 217 214 220 225 215 218 219 220 227 215 218 218 196 195 217 220 216 221 220 196 211 217 212 220 223 216 215 216 213 213 213 212 213 212 208
284 281 279 278 276 274 273 273 272 271 270 270 271 273 274 275 276 277 279 280 280 280 280 280 281 285 289 291 283 276 261 242 237 237 236 234 232 231 229 226 222 223 222 216 212 211 209 207 206 203 206 211 208 208 209 214 218 211 219 220 214 219 206 207 220 200 198 223 222 213 217 214 201 214 219 215 221 224 219 218 219 219 220 220 219 219 219 217
287 285 283 280 279 277 276 274 273 272 271 271 270 272 273 274 275 275 276 276 278 279 277 278 279 279 284 282 273 266 254 235 229 232 232 230 229 229 228 225 223 222 219 214 210 210 209 204 203 201 200 207 206 204 209 211 211 208 216 222 218 219 209 205 219 204 200 221 224 216 217 210 198 218 230 231 230 228 224 222 220 220 221 222 223 223 224 222
288 288 286 283 281 279 278 277 276 274 273 273 272 271 271 273 274 274 274 274 275 276 278 277 272 278 285 265 251 265 258 239 228 230 230 226 223 224 225 223 222 221 217 212 207 206 206 203 204 204 202 204 203 204 209 210 209 207 211 217 218 220 217 209 215 210 206 217 221 216 219 218 212 230 242 238 236 233 228 226 224 223 222 221 222 223 226 227
286 287 287 286 284 282 280 279 278 277 276 276 275 274 273 272 273 273 271 271 271 272 275 274 266 263 255 242 254 271 261 245 232 229 230 225 218 217 219 219 219 218 215 209 205 204 200 200 205 205 204 205 203 205 210 212 213 214 214 215 218 220 220 217 217 221 220 220 219 215 218 220 218 233 245 240 236 234 229 229 228 226 226 223 221 222 225 228
285 285 285 286 286 285 283 281 279 279 278 277 278 279 277 276 277 276 272 269 269 267 264 267 267 259 248 250 259 262 253 245 234 227 228 225 216 213 213 217 216 211 206 202 205 206 198 200 207 206 205 206 205 206 210 215 219 219 217 219 224 226 224 218 213 222 225 220 218 219 221 223 220 230 245 243 236 232 230 231 231 228 228 225 222 222 223 226
285 284 283 283 285 285 284 283 281 280 280 279 279 280 279 279 279 278 276 271 267 267 263 263 265 261 253 250 250 249 248 243 233 223 224 224 216 211 211 212 210 206 202 198 202 204 201 208 213 209 207 207 208 208 210 216 219 218 218 222 227 230 230 217 207 216 219 218 222 223 224 229 226 226 240 244 239 235 235 237 240 238 236 234 227 225 224 223
286 284 282 282 283 283 284 284 282 281 281 281 281 280 280 280 281 280 282 279 266 261 262 262 263 259 253 249 243 241 243 242 234 224 222 222 214 208 211 209 205 205 202 195 195 199 206 214 215 211 210 211 211 209 209 214 216 217 221 225 227 228 228 211 205 215 215 218 224 224 228 233 232 230 239 249 248 244 243 244 248 248 244 242 233 228 225 222
287 285 282 281 280 281 282 281 282 282 281 281 281 281 281 281 282 283 286 287 275 260 256 257 259 256 251 250 247 245 246 245 239 231 225 223 213 204 209 210 202 202 203 199 200 202 211 218 216 212 211 209 209 207 208 213 217 221 223 225 227 226 221 212 214 217 214 220 227 229 236 239 238 235 239 252 256 251 248 248 249 249 244 241 237 230 225 223
287 285 283 280 278 279 280 279 280 280 280 281 280 280 282 282 285 287 289 290 285 270 248 244 250 250 249 250 251 251 249 243 235 230 228 224 216 207 206 208 202 203 207 206 209 211 214 221 214 209 209 206 206 207 207 212 218 221 222 224 227 226 221 218 217 215 216 225 231 231 240 245 242 238 238 249 260 257 251 249 249 248 243 236 228 222 218 220
286 284 282 280 277 276 278 278 278 278 278 278 279 279 280 282 286 289 294 299 292 279 256 247 248 246 243 240 243 244 241 238 224 221 227 223 217 213 207 207 205 206 211 208 210 215 217 224 214 204 209 209 210 214 211 211 217 220 221 222 225 228 226 222 215 209 214 226 229 226 238 250 243 238 237 240 252 258 257 253 250 249 245 238 226 219 216 218
284 282 281 279 276 272 274 277 276 277 277 276 277 276 277 281 284 291 301 304 291 282 271 258 243 234 228 218 223 230 235 238 218 214 224 222 217 214 208 208 208 208 212 209 211 216 214 223 222 207 211 214 213 217 214 210 216 221 221 220 223 228 230 224 214 210 218 227 227 221 231 252 249 239 236 231 237 254 265 260 253 250 246 241 233 227 225 224
283 281 279 277 275 269 268 272 273 275 275 274 274 274 274 277 281 294 305 295 275 272 263 241 217 211 209 205 205 203 211 225 219 216 219 218 213 210 206 207 209 209 205 201 210 218 211 213 220 210 210 214 213 217 214 209 216 223 224 220 219 222 226 223 215 217 227 234 230 224 230 248 253 243 235 230 228 245 265 265 257 253 249 243 239 236 232 231
282 279 276 275 274 269 264 265 268 270 271 270 270 271 268 268 275 288 301 280 252 251 238 212 203 203 203 208 205 198 203 202 211 219 216 214 208 207 212 211 211 210 203 201 207 218 215 214 219 213 210 214 216 217 213 209 215 223 226 218 213 217 225 225 223 225 230 233 231 229 228 240 252 246 239 237 228 238 261 267 260 257 255 250 245 241 239 235
281 278 276 272 270 269 265 263 263 264 266 267 264 262 259 257 262 259 246 255 245 240 231 201 199 207 209 217 215 212 215 200 200 212 208 208 204 205 213 213 213 214 211 215 216 219 223 220 221 217 212 215 218 217 215 213 213 218 223 212 208 215 223 225 227 229 228 227 227 225 222 228 251 246 235 237 237 239 255 265 263 261 263 263 258 251 244 239
279 277 275 271 266 265 263 263 263 262 261 262 256 249 248 240 231 225 220 230 231 231 230 208 199 207 209 217 218 212 211 202 211 215 204 205 207 209 211 207 211 215 215 222 222 223 230 224 220 217 213 215 217 216 217 214 210 215 219 207 207 215 220 224 227 231 234 227 225 228 221 218 243 248 231 230 239 242 248 256 264 271 268 265 265 262 253 243
277 275 274 270 265 261 259 259 260 260 258 254 248 239 237 226 218 222 223 225 228 230 230 216 203 200 195 196 198 201 205 206 214 212 202 200 203 208 209 204 206 211 215 219 221 221 223 222 220 217 214 212 214 216 217 213 210 215 219 211 209 207 209 219 220 225 238 230 226 233 225 215 233 246 233 228 238 243 246 244 254 268 271 267 264 264 262 254
276 272 271 270 265 259 257 256 252 254 254 249 242 230 220 218 220 221 222 227 233 227 216 205 202 205 205 201 197 196 205 215 215 207 201 198 199 203 206 202 199 202 210 213 214 217 219 220 217 215 215 210 209 212 215 215 212 215 218 212 208 200 198 212 213 215 230 231 230 234 227 220 231 242 239 233 231 232 240 245 248 257 266 273 271 263 264 261
275 271 268 267 265 258 255 255 249 246 246 242 236 223 212 221 227 218 215 216 215 212 204 201 207 212 211 206 205 205 209 219 216 206 204 201 200 205 207 206 202 202 208 207 206 211 215 219 216 213 214 210 207 208 209 209 207 209 210 207 208 207 203 211 213 216 225 229 230 230 227 226 234 243 243 238 235 236 245 254 258 257 255 264 267 256 258 259
275 272 267 264 263 258 252 252 250 244 241 235 228 216 212 226 232 219 216 218 220 231 208 198 206 211 209 210 214 211 207 221 215 204 203 203 203 207 208 209 208 208 211 208 206 208 210 215 214 210 209 207 207 209 209 207 206 208 209 210 215 216 217 217 212 219 224 225 225 218 217 228 234 242 244 241 244 246 249 255 267 272 263 262 262 248 250 253
275 271 268 264 260 258 251 249 249 245 239 231 221 213 216 225 228 224 221 218 221 232 224 212 210 211 216 220 225 218 206 213 215 205 207 207 207 209 207 208 208 207 211 214 211 212 217 225 218 211 210 206 206 208 208 208 211 212 210 215 220 218 221 230 229 229 228 228 223 212 213 231 238 243 245 245 250 250 253 260 268 277 274 265 259 247 243 242
275 271 269 266 261 257 251 246 245 243 238 228 219 218 222 224 222 223 225 219 221 227 230 233 229 226 228 225 226 226 217 216 216 212 216 215 215 215 210 209 206 204 210 214 211 209 218 229 216 206 208 206 204 205 204 208 212 208 209 216 221 220 223 231 235 232 230 233 229 216 219 232 237 244 246 248 256 257 258 261 261 272 277 265 254 246 241 236
276 270 266 266 263 258 252 247 243 241 237 226 222 225 228 228 225 225 225 215 215 219 226 235 232 228 231 228 225 226 225 225 221 220 221 217 219 219 212 210 208 207 209 211 215 214 219 228 208 195 204 204 202 204 206 211 212 206 210 215 216 221 229 231 231 221 219 233 234 226 227 227 229 241 246 245 251 252 251 253 254 264 271 264 250 242 240 237
277 272 266 263 262 259 253 249 243 240 237 229 228 231 232 231 229 227 225 221 220 222 227 233 232 225 226 229 229 220 215 219 217 218 220 214 216 218 211 211 210 209 209 210 219 220 217 230 215 197 205 205 200 205 209 211 214 215 217 214 210 214 221 222 223 222 221 228 236 236 236 230 229 235 235 232 238 240 239 242 244 250 261 264 251 240 237 236
279 276 270 263 260 258 252 247 243 239 234 232 232 235 235 234 232 228 228 231 233 230 230 232 233 232 227 226 228 214 206 215 214 212 217 212 212 214 209 210 209 206 207 208 217 219 211 226 223 199 204 205 198 204 210 209 210 216 222 220 217 220 219 217 221 228 231 232 235 239 238 231 229 232 229 223 223 224 225 232 240 246 260 271 264 246 238 236
281 279 274 265 260 257 251 245 240 235 233 234 234 236 238 238 237 234 234 235 235 232 233 235 235 235 232 224 223 213 205 213 211 208 214 210 210 219 211 208 208 206 206 206 214 219 211 220 227 200 193 201 201 204 209 209 205 206 213 217 215 216 220 225 226 227 231 238 237 237 240 234 230 229 228 225 224 228 236 243 249 253 257 265 266 257 247 243
282 282 275 267 261 257 252 246 240 235 235 238 239 239 240 240 238 238 239 239 238 234 232 233 234 234 234 229 225 220 214 216 215 215 220 215 213 220 209 204 207 207 205 205 211 215 210 213 220 204 190 203 210 208 210 213 210 206 210 215 215 212 215 223 227 224 227 233 235 236 244 239 232 226 226 228 232 237 243 248 253 257 258 258 262 262 255 251
283 280 276 271 267 260 253 249 246 242 240 240 239 238 239 239 238 239 239 238 238 236 231 231 233 233 234 233 229 226 224 225 224 223 226 223 216 214 204 199 203 204 206 208 211 212 212 214 218 216 210 212 216 214 214 216 216 217 217 217 218 218 218 221 224 221 223 230 236 239 244 240 236 229 223 227 233 236 239 245 253 258 255 253 260 261 254 251
284 279 277 276 273 267 259 254 250 247 246 245 242 239 239 241 242 243 240 235 234 234 232 232 233 233 234 234 232 230 229 230 232 229 228 229 220 214 212 200 191 194 203 208 209 208 209 212 215 222 227 225 223 220 218 217 217 222 223 219 219 220 221 225 228 227 227 229 230 235 241 237 232 227 222 225 234 236 237 241 247 252 252 256 264 260 251 250
284 283 281 278 274 269 260 254 254 252 250 251 250 246 242 241 241 239 234 231 229 229 229 230 231 232 232 232 232 231 229 231 235 234 230 234 232 224 223 216 199 193 198 204 202 201 206 207 208 218 225 224 223 218 212 212 215 221 223 220 220 221 222 226 229 230 233 232 229 232 236 231 227 230 237 241 240 236 236 238 241 247 255 262 265 260 254 252
285 285 282 277 273 266 252 242 251 258 252 251 253 249 246 244 242 238 232 228 226 225 228 230 229 230 230 230 232 232 230 229 234 237 233 234 238 232 226 220 209 203 206 202 192 194 207 210 207 213 217 212 215 212 207 209 212 219 224 222 221 221 221 224 227 230 232 233 232 234 237 234 230 232 238 236 225 224 229 231 235 245 257 264 265 264 259 253
285 282 281 276 263 258 254 245 246 255 254 259 265 259 251 250 248 244 238 231 227 224 225 229 226 225 226 225 227 230 230 229 229 231 230 227 228 229 227 221 212 209 211 203 192 194 214 218 211 216 224 224 222 220 216 215 214 218 222 223 223 223 223 225 227 229 231 232 233 236 240 240 231 225 225 221 219 228 233 233 239 250 258 259 260 265 264 258
280 278 277 271 254 244 249 250 247 249 250 260 271 265 254 255 252 247 240 234 231 228 227 228 223 220 221 221 224 228 228 227 227 227 228 225 219 220 226 223 216 213 209 202 200 205 216 222 218 220 229 232 232 230 225 221 221 221 222 222 223 223 223 225 228 230 232 234 236 235 234 235 232 226 222 222 226 233 235 235 241 249 255 256 261 268 267 260
272 269 264 262 256 235 219 220 227 237 243 253 264 261 259 261 256 251 245 236 230 226 226 227 224 223 222 220 223 228 227 226 227 227 227 226 221 221 227 226 220 216 211 208 215 217 218 225 224 224 231 233 233 236 233 229 228 227 225 224 224 224 223 226 230 232 233 235 239 237 230 231 231 229 229 231 231 231 234 240 243 247 253 259 263 266 265 260
268 266 261 260 260 252 240 233 236 244 249 251 257 259 258 258 256 256 251 238 231 225 222 224 225 227 227 224 225 228 226 224 226 225 224 223 221 222 226 226 221 217 214 217 221 218 221 228 228 229 234 234 232 234 235 234 233 231 231 230 229 228 228 228 231 233 234 237 241 241 238 236 232 229 233 236 237 239 244 247 245 244 247 253 256 256 260 264
267 265 263 262 263 263 259 253 252 258 259 253 255 259 257 257 260 256 244 234 231 222 215 222 228 227 223 222 224 227 226 224 226 223 218 217 218 221 226 227 221 214 213 217 220 220 222 224 223 230 238 236 232 231 233 235 236 234 234 234 233 233 231 230 230 231 233 237 239 240 242 240 234 231 235 237 238 242 246 247 246 245 245 249 252 252 256 267
268 265 266 266 267 266 263 258 256 260 264 261 259 258 251 247 251 249 240 232 226 216 213 229 230 217 208 210 217 224 226 228 227 215 197 199 206 212 220 222 218 214 211 209 210 216 220 220 219 230 238 235 229 228 230 232 235 236 234 232 232 233 233 233 231 230 231 234 236 237 239 240 238 237 237 236 237 240 243 244 246 248 248 248 251 253 255 261
274 272 269 268 268 266 263 261 257 255 257 260 256 248 242 240 245 250 248 237 226 224 231 234 222 210 207 212 218 219 220 225 227 220 210 207 207 207 209 210 209 212 212 207 206 208 209 209 211 224 236 235 227 226 229 229 231 233 231 230 230 231 233 235 235 232 231 232 234 236 238 241 240 236 235 237 238 239 240 242 243 246 249 246 246 250 252 251